Regional Weather Roundup
Issued by NWS

Home | Current Version | Previous Version | Text Only | Print | Product List | Glossary On
Versions: 1 2 3 4 5 6 7 8 9 10 11 12 13 14 15 16 17 18 19 20 21 22 23 24 25 26 27 28 29 30 31 32 33 34 35 36 37 38 39 40 41 42 43 44 45 46 47 48 49 50
000
ASUS44 KJAN 261510
RWRMS

MISSISSIPPI HOURLY WEATHER ROUNDUP
NATIONAL WEATHER SERVICE JACKSON MS
900 AM CST MON JAN 26 2015

NOTE: "FAIR: INDICATES FEW OR NO CLOUDS BELOW 12,000 FEET WITH NO
SIGNIFICANT WEATHER AND/OR OBSTRUCTIONS TO VISIBILITY.

MSZ001>002-007>008-010>013-018>021-025>028-034>036-261600-
NORTHWEST MISSISSIPPI

CITY           SKY/WX    TMP DP  RH WIND       PRES   REMARKS
CLARKSDALE     CLOUDY    39  32  75 NW12      30.15R WCI  32
CLEVELAND      FAIR      42  35  76 N9        30.13S
GREENWOOD      CLOUDY    41  32  70 N3        30.13R
GREENVILLE     CLOUDY    44  35  70 N7        30.14R
GRENADA        CLOUDY    39  32  75 NW8       30.12S WCI  34
OLIVE BRANCH   MOSUNNY   36  32  87 N12       30.10R WCI  27
OXFORD         CLOUDY    37  28  70 N9G16     30.11R WCI  31
TUNICA         CLOUDY    37  32  81 N10       30.14R WCI  30
$$

MSZ003>006-009-014>017-022>024-029>033-037>039-261600-
NORTHEAST MISSISSIPPI

CITY           SKY/WX    TMP DP  RH WIND       PRES   REMARKS
COLUMBUS AFB   CLOUDY    40  31  69 NW15      30.07S WCI  32
CORINTH        CLOUDY    37  28  70 NW9       30.06R WCI  31
GOLDN TRIANGLE CLOUDY    43  32  65 N14       30.06R
STARKVILLE     CLOUDY    41  34  75 NW5       30.08S
TUPELO         CLOUDY    39  31  72 N7        30.07S WCI  34
$$

MSZ040-058-261600-
CENTRAL MISSISSIPPI

CITY           SKY/WX    TMP DP  RH WIND       PRES   REMARKS
JACKSON INTL   CLOUDY    45  34  65 NW9       30.13R
JACKSON HAWKNS CLOUDY    44  34  67 NW12      30.14R
MERIDIAN KEY   CLOUDY    44  34  67 NW17G23   30.08R
MERIDIAN NAS   CLOUDY    44  33  65 NW17G24   30.08R
RAYMOND        CLOUDY    45  39  81 NW10G17   30.14R
VICKSBURG      CLOUDY    45  33  63 N10       30.17R
$$

MSZ059>079-261600-
SOUTH MISSISSIPPI

CITY           SKY/WX    TMP DP  RH WIND       PRES   REMARKS
BROOKHAVEN     PTSUNNY   45  36  70 NW13      30.14R
HATTIESBURG    SUNNY     49  36  61 NW16G22   30.10R
MCCOMB         SUNNY     47  34  60 NW14G23   30.14R
NATCHEZ        SUNNY     45  34  65 NW12G17   30.18R
PINE BELT      CLOUDY    48  34  57 NW15G24   30.10R
$$

MSZ080>082-261600-
COASTAL MISSISSIPPI

CITY           SKY/WX    TMP DP  RH WIND       PRES   REMARKS
BAY ST LOUIS   SUNNY     48  32  53 N14G21    30.11R
BILOXI         SUNNY     49  37  63 N12       30.09R
PASCAGOULA     SUNNY     50  35  56 N15G25    30.07R
GULFPORT       SUNNY     49  36  61 NW13      30.09R
$$


USA.gov is the U.S. government's official web portal to all federal, state and local government web resources and services.